Location: Bothwell
(42.3833°S, 147.0000°E)
Time: 21:08:34
(UTC+11:00)

Envisat - Visible Passes

Search period start: 23 February 2024 00:00
Search period end: 04 March 2024 00:00
Orbit: 762 x 764 km, 98.3° (Epoch: 22 February)

Date Brightness Start Highest point End Pass type
(mag) Time Alt. Az. Time Alt. Az. Time Alt. Az.
23 Feb 4.5 02:56:23 31° ESE 02:56:40 31° ESE 03:01:09 10° S visible
23 Feb 3.9 04:36:33 31° WSW 04:36:33 31° WSW 04:40:12 10° SSW visible
24 Feb 5.5 02:18:48 14° ESE 02:19:48 15° ESE 02:22:41 10° SSE visible
24 Feb 3.2 03:58:58 61° SW 03:58:58 61° SW 04:03:18 10° SSW visible
25 Feb 3.8 03:21:22 49° SE 03:21:22 49° SE 03:25:53 10° S visible
25 Feb 4.6 05:01:32 18° WSW 05:01:32 18° WSW 05:03:54 10° SW visible
26 Feb 4.9 02:43:46 24° ESE 02:43:54 24° ESE 02:47:59 10° SSE visible
26 Feb 3.8 04:23:57 36° WSW 04:23:57 36° WSW 04:27:30 10° SSW visible
27 Feb 5.7 02:06:11 11° ESE 02:07:06 12° ESE 02:08:53 10° SE visible
27 Feb 3.5 03:46:21 56° S 03:46:21 56° S 03:50:25 10° SSW visible
28 Feb 4.3 03:08:46 37° SE 03:08:46 37° SE 03:12:51 10° S visible
28 Feb 4.5 04:48:56 21° WSW 04:48:56 21° WSW 04:51:26 10° SW visible
29 Feb 5.2 02:31:10 19° ESE 02:31:10 19° ESE 02:34:43 10° SSE visible
29 Feb 3.8 04:11:20 39° SW 04:11:20 39° SW 04:14:45 10° SSW visible
01 Mar 3.9 03:33:45 46° SSE 03:33:45 46° SSE 03:37:28 10° S visible
01 Mar 5.0 05:13:55 12° WSW 05:13:55 12° WSW 05:14:47 10° SW visible
02 Mar 4.8 02:56:09 29° SE 02:56:09 29° SE 02:59:45 10° S visible
02 Mar 4.4 04:36:20 24° SW 04:36:20 24° SW 04:38:49 10° SSW visible
03 Mar 5.5 02:18:34 15° ESE 02:18:34 15° ESE 02:21:15 10° SSE visible
03 Mar 4.0 03:58:44 38° SSW 03:58:44 38° SSW 04:01:54 10° SSW visible
